www.pogodaiklimat.ru

Погода и климат >> Архив погоды >> Иран >> Abadan


ПОГОДА в Abadan

  • Прогноз погоды в Abadan
  • Монитор погоды в Abadan
  • Климат города

АРХИВ ПОГОДЫ в Abadan

Время (UTC), дата Ветер
(напр.,м/с)
 
Видим.   Явления Облачность Т
(С)
Тd
(С)
f
(%)
Тe
(С)
Тes
(С)
Комфортность P
(гПа)
Po
(гПа)
Тmin
(С)
Tmax
(С)
R
(мм)
R24
(мм)
S
(см)
21 12.09 СЗ 6 10 км ясно +38.0 +2.5 11 +35 +35 очень
жарко
1004.2 1003.5
00 13.09 З 2 10 км ясно +29.4 +7.9 26 +29 +29 жарко 1003.7 1002.9
03 13.09 З 2 10 км ясно +26.9 +4.6 24 +26 +26 жарко 1004.3 1003.5 +26.5
06 13.09 СЗ 5 10 км ясно +36.6 +4.8 14 +34 +39 очень
жарко
1005.3 1004.5
09 13.09 З 4 10 км ясно +44.4 +4.4 9 +41 +53 опасность
перегрева
1004.0 1003.3
12 13.09 С 3 10 км ясно +47.1 +2.8 7 +44 +50 опасность
перегрева
1002.3 1001.5
15 13.09 СВ 1 10 км ясно +43.7 +3.9 9 +41 +41 опасность
перегрева
1001.6 1000.8 +47.6
18 13.09 Ю 3 10 км ясно +34.1 +11.9 26 +34 +34 очень
жарко
1002.1 1001.3
21 13.09 ЮЗ 1 10 км ясно +29.1 +15.6 44 +32 +32 душно 1001.4 1000.5
00 14.09 штиль 0 10 км ясно +26.8 +8.7 32 +27 +27 жарко 1000.9 1000.1
03 14.09 З 2 5000 м мгла ясно +25.6 +9.4 36 +26 +26 жарко 1001.7 1000.9 +25.0
06 14.09 С 1 6000 м мгла ясно +34.7 +9.9 22 +34 +45 очень
жарко
1003.2 1002.5
09 14.09 ЮВ 1 6000 м мгла ясно +44.6 +9.9 13 +43 +63 опасность
перегрева
1002.7 1001.9
12 14.09 СВ 1 10 км ясно +48.4 +7.3 9 +46 +55 опасность
перегрева
1001.4 1000.6
15 14.09 Ю 2 7000 м мгла ясно +41.5 +9.6 15 +40 +40 очень
жарко
1001.7 1000.9 +48.4
18 14.09 штиль 0 10 км ясно +33.5 +19.9 45 +40 +40 очень
душно
1002.9 1002.1
21 14.09 ЮЗ 2 10 км ясно +29.7 +19.1 53 +35 +35 очень
душно
1002.8 1001.9
00 15.09 ЮЗ 2 10 км ясно +29.0 +16.3 46 +32 +32 душно 1002.6 1001.9
03 15.09 штиль 0 5000 м мгла 1/0
[Ci fib]
+26.3 +17.9 60 +31 +31 душно 1003.6 1002.8 +26.2
06 15.09 З 2 6000 м мгла ясно +35.9 +10.9 22 +35 +45 очень
жарко
1004.9 1004.1
09 15.09 ЮЗ 2 10 км ясно +45.9 +8.4 11 +44 +61 опасность
перегрева
1004.4 1003.6
12 15.09 СВ 2 10 км ясно +48.3 +5.6 8 +46 +53 опасность
перегрева
1003.2 1002.4
15 15.09 Ю 3 7000 м мгла ясно +40.1 +16.9 26 +42 +42 опасность
перегрева
1003.5 1002.7 +49.1
18 15.09 З 2 6000 м мгла ясно +33.2 +16.3 36 +51 +51 опасность
перегрева
1004.9 1004.2
21 15.09 СЗ 4 10 км ясно +34.9 +12.6 26 +35 +35 очень
жарко
1004.6 1003.5
00 16.09 СЗ 3 10 км ясно +30.4 +14.5 38 +32 +32 жарко 1004.1 1003.3
03 16.09 штиль 0 5000 м мгла ясно +27.0 +14.1 45 +29 +29 жарко 1004.9 1004.1 +26.9
06 16.09 СЗ 5 5000 м мгла ясно +34.7 +13.0 27 +35 +40 очень
жарко
1005.7 1004.9
09 16.09 СЗ 4 6000 м мгла ясно +42.6 +10.5 15 +41 +53 опасность
перегрева
1004.7 1003.9
12 16.09 С 5 7000 м мгла ясно +46.4 +10.1 12 +45 +49 опасность
перегрева
1003.0 1002.2
15 16.09 СЗ 2 7000 м мгла ясно +43.4 +9.0 13 +42 +42 опасность
перегрева
1002.8 1002.0 +46.9
18 16.09 СЗ 5 10 км ясно +37.3 +10.6 20 +36 +36 очень
жарко
1003.9 1003.1
21 16.09 СЗ 5 10 км ясно +35.0 +9.4 21 +34 +34 очень
жарко
1003.3 1002.7
00 17.09 З 2 10 км ясно +29.4 +8.5 27 +29 +29 жарко 1002.6 1001.8
03 17.09 З 2 5000 м мгла ясно +26.2 +9.1 34 +27 +27 жарко 1003.3 1002.6 +26.2
06 17.09 СЗ 4 7000 м мгла ясно +36.7 +7.7 17 +35 +41 очень
жарко
1004.5 1003.7
09 17.09 С 6 10 км ясно +44.5 +7.4 11 +42 +49 опасность
перегрева
1003.7 1002.9
12 17.09 СЗ 7 10 км ясно +47.1 +6.4 9 +45 +47 опасность
перегрева
1001.9 1001.1
15 17.09 СЗ 5 10 км ясно +43.8 +8.1 12 +42 +42 опасность
перегрева
1002.0 1001.3 +47.3
18 17.09 СЗ 4 10 км ясно +37.3 +10.6 20 +36 +36 очень
жарко
1003.1 1002.3
21 17.09 СЗ 4 10 км ясно +35.5 +9.1 20 +34 +34 очень
жарко
1003.1 1002.4
00 18.09 В 2 10 км ясно +31.6 +10.9 28 +32 +32 жарко 1003.0 1002.2
03 18.09 З 2 10 км ясно +27.4 +12.6 40 +29 +29 жарко 1003.9 1003.1 +27.4
06 18.09 С 1 7000 м мгла ясно +36.5 +15.6 29 +38 +49 очень
душно
1005.3 1004.6
09 18.09 СВ 3 8000 м мгла ясно +41.9 +19.6 28 +47 +60 опасность
перегрева
1004.7 1004.0
12 18.09 С 2 10 км ясно +45.3 +18.6 22 +49 +56 опасность
перегрева
1003.3 1002.5
15 18.09 ЮВ 3 10 км ясно +38.6 +26.0 49 +54 +54 опасность
перегрева
1003.4 1002.6 +45.5
18 18.09 ЮВ 3 6000 м дымка ясно +33.3 +29.4 80 +58 +58 опасность
перегрева
1006.2 1005.4
21 18.09 ЮВ 3 5000 м дымка ясно +32.2 +29.8 87 +58 +58 опасность
перегрева
1006.1 1005.4
00 19.09 Ю 2 4000 м дымка ясно +31.1 +29.1 89 +54 +54 опасность
перегрева
1005.6 1004.8
03 19.09 СВ 3 2000 м дымка 4/4 600 м
[Frnb]
+29.8 +28.4 92 +50 +50 опасность
перегрева
1006.2 1005.5 +29.2
06 19.09 ЮВ 2 2000 м мгла ясно +34.0 +29.1 76 +58 +67 опасность
перегрева
1007.6 1006.9
09 19.09 ЮВ 2 6000 м мгла ясно +39.9 +25.7 45 +54 +70 опасность
перегрева
1006.5 1005.7
12 19.09 Ю 3 7000 м мгла ясно +43.1 +23.8 34 +53 +59 опасность
перегрева
1004.9 1004.1
15 19.09 Ю 4 8000 м мгла ясно +38.3 +18.7 32 +42 +42 опасность
перегрева
1004.7 1003.9 +43.5
18 19.09 ЮВ 2 10 км ясно +33.0 +24.5 61 +46 +46 опасность
перегрева
1005.9 1005.1

 

Местоположение метеостанции Abadan (Иран): широта 30.37 долгота 48.25 высота над уровнем моря 6 м.

В архиве по умолчанию представлена погода в Abadan за последнюю неделю. Архивные данные за месяц целиком и за предыдущие месяцы, начиная с января 2011 года, Вы можете получить, выбрав интересующий диапазон дат из раскрывающегося списка и нажав кнопку "Ввод!".


*Определитесь, кто Вы:
робот инопланетянин человек

Внимание! Время в таблицах - всемирное. Для получения местного времени необходимо прибавить поправку, которая в Abadan равна 3.5 ч.

Смотрите также архив погоды в соседних городах и на ближайших метеорологических станциях:

Погода в Basrah Airport (Ирак) (48 км)
Погода в Fao (Ирак) (50 км)
Погода в Basrah (Ирак) (50 км)
Погода в Abdaly (Кувейт) (62 км)
Погода в Bubiyan (Кувейт) (68 км)
Погода в Sabriyah (Кувейт) (79 км)
Погода в Failaka Island (Кувейт) (100 км)
Погода в Mitribah (Кувейт) (104 км)
Погода в Jal Aliyah (Кувейт) (106 км)
Погода в Ahwaz (Иран) (114 км)

Пояснения к столбцам:

Ветер - указаны скорость ветра в м/с - средняя за 10 мин, порывы в срок и между сроками (в фигурных скобках) и направление, откуда дует ветер: С - северный, СВ - северо-восточный, В - восточный, ЮВ - юго-восточный, Ю - южный, ЮЗ - юго-западный, З - западный, СЗ - северо-западный.
Видимость - горизонтальная дальность видимости в метрах или километрах. При видимости от 1 до 10 км при отсутствии осадков обычно наблюдается дымка, при ухудшении видимости до 1 км и менее - туман. В сухую погоду видимость может ухудшаться дымом, пылью или мглою.
Явления - указаны атмосферные явления, наблюдавшиеся в срок или в последний час перед сроком; фигурными скобками обозначены явления, наблюдавшиеся между сроками (за 1-3 часа до срока); квадратными скобками обозначены град или гололедные отложения с указанием их диаметра в мм.
Облачность - указаны через наклонную черту общая и нижняя облачность в баллах и высота нижней границы облаков в метрах; квадратными скобками обозначены формы облаков: Ci - перистые, Cs - перисто-слоистые, Cc - перисто-кучевые, Ac - высококучевые, As - высокослоистые, Sc - слоисто-кучевые, Ns - слоисто-дождевые, Cu - кучевые, Cb - кучево-дождевые. Подробнее классификацию облаков см. в Атласе облаков (PDF).
T - Температура воздуха - температура, измеренная на высоте 2 м над землей.
Td - Температура точки росы - температура, при понижении до которой содержащийся в воздухе водяной пар достигнет насыщения.
f - Относительная влажность воздуха - влажноcть воздуха, измеренная на высоте 2 м над землей.
Te - Эффективная температура - температура, которую ощущает одетый по сезону человек в тени. Характеристика душности погоды. При расчете учитывается влияние влажности воздуха и скорости ветра на теплоощущения человека.
Tes - Эффективная температура на солнце - температура, которую ощущает человек, с поправкой на солнечный нагрев. Характеристика знойности погоды. Зависит от высоты солнца над горизонтом, облачности и скорости ветра. Ночью, в пасмурную погоду, а также при ветре 12 м/с и более поправка равна нулю.
P - Атмосферное давление - приведенное к уровню моря атмосферное давление.
Po - Атмосферное давление - измеренное на уровне метеостанции атмосферное давление.
Tmin - Минимальная температура - минимум температуры воздуха на высоте 2 м над землей.
Tmax - Максимальная температура - максимум температуры воздуха на высоте 2 м над землей.
R - Количество осадков - Количество выпавших осадков за период времени, мм. При наведении курсора мыши на число - период времени, за который выпало указанное количество осадков.
R24 - Количество осадков - Количество выпавших осадков за 24 часа, мм.
S - Снежный покров - Высота снежного покрова, см. При наведении курсора мыши на число - состояние снежного покрова и степень покрытия местности в баллах.